Darstellungsparameter: Aktuell verwendete Einstellungen:
Skalierung der Graphiken ... ?
xyx+y,   Skalierungsfaktor:      Skalierung: Modus: x, Faktor: 1
Darstellungszeitraum ... ?
Vom - - bis: - -   Zeitraum: 25.01.2021 - 25.01.2021
Min/Max/Avg-Anzeige ... ?
Zeige MMA aktuell
Zeige MMA Monat
Zeige MMA alles
Zeige --A aktuell
Zeige --A Monat
Zeige --A alles
Keine MMA-Anzeige
MMA:
Minimum Maximum Average (ber die Originaldaten)
MMA-Basis: 25.01.2021 - 25.01.2021
Quicknavigation für Darstellung... ?
Tage:      1T, 2T, 3T, 5T -1T -2T -3T -5T +1T +2T +3T +5T
Wochen: 1W, 2W, 3W -1W -2W -3W +1W +2W +3W
Monate: 1M, 3M, 6M -1M -3M -6M +1M +3M +6M
Jahre:    1J, 3J, 5J, 10J -1J -3J -5J -10J +1J +3J +5J +10J
Nutze für die Darstellung ... ?
Originaldaten oder Mittelwerte auf ...
Stundenbasis Tagesbasis Wochenbasis
Monatsbasis Jahresbasis      Datenbasis: Original-Daten
Darstellen als:
Statistik (Auto) Statistik J:M      Darstellung:

Der gewünschte Datumsbereich war nicht gültig/verfügbar und wurde korrigiert....
Das angegebene Enddatum (19.10.2023 23:59:59) liegt in der Zukunft.
Das angegebene Startdatum (19.10.2023 00:00:00) liegt in der Zukunft.


Zur Graphik,    zurück zur Übersicht aller Sensoren.
 
Tabellarische Datenbersicht: ?
 
Sensor: Nr:Datum:Temp:Abs-Feuchte:Windchill:Wind:
Aussen-T/F 1 25-01-2021 01:00:00 1 C 4.72 g/m*3 1 C 4.8 km/h
2 25-01-2021 01:05:00 1 C 4.78 g/m*3 1 C 4.8 km/h
3 25-01-2021 01:10:00 0.9 C 4.74 g/m*3 0.9 C 1.6 km/h
4 25-01-2021 01:15:00 0.9 C 4.74 g/m*3 0.9 C 1.6 km/h
5 25-01-2021 01:20:00 0.9 C 4.74 g/m*3 0.9 C 0 km/h
6 25-01-2021 01:25:00 0.8 C 4.76 g/m*3 0.8 C 0 km/h
7 25-01-2021 01:30:00 0.8 C 4.76 g/m*3 0.8 C 0 km/h
8 25-01-2021 01:35:00 0.8 C 4.76 g/m*3 0.8 C 0 km/h
9 25-01-2021 01:40:00 0.8 C 4.76 g/m*3 0.8 C 1.6 km/h
10 25-01-2021 01:45:00 0.8 C 4.76 g/m*3 0.8 C 0 km/h
11 25-01-2021 01:50:00 0.7 C 4.73 g/m*3 0.7 C 0 km/h
12 25-01-2021 01:55:00 0.8 C 4.76 g/m*3 0.8 C 1.6 km/h
13 25-01-2021 02:00:00 0.8 C 4.76 g/m*3 0.8 C 3.2 km/h
14 25-01-2021 02:05:00 0.8 C 4.76 g/m*3 0.8 C 4.8 km/h
15 25-01-2021 02:10:00 0.9 C 4.79 g/m*3 -1.14 C 6.4 km/h
16 25-01-2021 02:15:00 0.9 C 4.79 g/m*3 0.9 C 3.2 km/h
17 25-01-2021 02:20:00 0.9 C 4.79 g/m*3 0.9 C 3.2 km/h
18 25-01-2021 02:25:00 0.9 C 4.79 g/m*3 0.9 C 0 km/h
19 25-01-2021 02:30:00 0.9 C 4.79 g/m*3 0.9 C 1.6 km/h
20 25-01-2021 02:35:00 0.9 C 4.79 g/m*3 0.9 C 1.6 km/h
21 25-01-2021 02:40:00 0.9 C 4.79 g/m*3 0.9 C 0 km/h
22 25-01-2021 02:45:00 0.9 C 4.79 g/m*3 0.9 C 0 km/h
23 25-01-2021 02:50:00 0.9 C 4.79 g/m*3 0.9 C 3.2 km/h
24 25-01-2021 02:55:00 0.9 C 4.79 g/m*3 0.9 C 1.6 km/h
25 25-01-2021 03:00:00 0.8 C 4.76 g/m*3 -1.26 C 6.4 km/h
Sensor: Nr:Datum:Temp:Abs-Feuchte:Windchill:Wind:
Aussen-T/F 26 25-01-2021 03:05:00 0.9 C 4.79 g/m*3 0.9 C 3.2 km/h
27 25-01-2021 03:10:00 0.9 C 4.79 g/m*3 0.9 C 4.8 km/h
28 25-01-2021 03:15:00 0.9 C 4.79 g/m*3 0.9 C 3.2 km/h
29 25-01-2021 03:20:00 0.9 C 4.74 g/m*3 -1.71 C 8.1 km/h
30 25-01-2021 03:25:00 0.9 C 4.79 g/m*3 0.9 C 3.2 km/h
31 25-01-2021 03:30:00 0.9 C 4.79 g/m*3 0.9 C 4.8 km/h
32 25-01-2021 03:35:00 0.9 C 4.79 g/m*3 0.9 C 1.6 km/h
33 25-01-2021 03:40:00 0.9 C 4.74 g/m*3 0.9 C 1.6 km/h
34 25-01-2021 03:45:00 0.8 C 4.71 g/m*3 0.8 C 3.2 km/h
35 25-01-2021 03:50:00 0.8 C 4.71 g/m*3 0.8 C 3.2 km/h
36 25-01-2021 03:55:00 0.8 C 4.71 g/m*3 -1.83 C 8.1 km/h
37 25-01-2021 04:00:00 0.9 C 4.79 g/m*3 -2.16 C 9.7 km/h
38 25-01-2021 04:05:00 0.9 C 4.79 g/m*3 -2.16 C 9.7 km/h
39 25-01-2021 04:10:00 0.9 C 4.79 g/m*3 -1.71 C 8.1 km/h
40 25-01-2021 04:15:00 0.9 C 4.79 g/m*3 -1.14 C 6.4 km/h
41 25-01-2021 04:20:00 1 C 4.83 g/m*3 -1.03 C 6.4 km/h
42 25-01-2021 04:25:00 1 C 4.83 g/m*3 -1.59 C 8.1 km/h
43 25-01-2021 04:30:00 1.1 C 4.81 g/m*3 -1.48 C 8.1 km/h
44 25-01-2021 04:35:00 1.1 C 4.81 g/m*3 1.1 C 4.8 km/h
45 25-01-2021 04:40:00 1.1 C 4.81 g/m*3 1.1 C 4.8 km/h
46 25-01-2021 04:45:00 1.1 C 4.81 g/m*3 -1.48 C 8.1 km/h
47 25-01-2021 04:50:00 1.2 C 4.84 g/m*3 1.2 C 3.2 km/h
48 25-01-2021 04:55:00 1.2 C 4.84 g/m*3 -0.8 C 6.4 km/h
49 25-01-2021 05:00:00 1.2 C 4.84 g/m*3 1.2 C 4.8 km/h
50 25-01-2021 05:05:00 1.2 C 4.84 g/m*3 1.2 C 1.6 km/h
Sensor: Nr:Datum:Temp:Abs-Feuchte:Windchill:Wind:
Aussen-T/F 51 25-01-2021 05:10:00 1.2 C 4.84 g/m*3 1.2 C 4.8 km/h
52 25-01-2021 05:15:00 1.2 C 4.84 g/m*3 1.2 C 1.6 km/h
53 25-01-2021 05:20:00 1.2 C 4.84 g/m*3 1.2 C 4.8 km/h
54 25-01-2021 05:25:00 1.2 C 4.84 g/m*3 1.2 C 1.6 km/h
55 25-01-2021 05:30:00 1.2 C 4.84 g/m*3 1.2 C 3.2 km/h
56 25-01-2021 05:35:00 1.2 C 4.84 g/m*3 1.2 C 0 km/h
57 25-01-2021 05:40:00 1.2 C 4.84 g/m*3 1.2 C 1.6 km/h
58 25-01-2021 05:45:00 1.2 C 4.84 g/m*3 1.2 C 0 km/h
59 25-01-2021 05:50:00 1.2 C 4.89 g/m*3 1.2 C 0 km/h
60 25-01-2021 05:55:00 1.2 C 4.84 g/m*3 1.2 C 0 km/h
61 25-01-2021 06:00:00 1.2 C 4.84 g/m*3 1.2 C 0 km/h
62 25-01-2021 06:05:00 1.2 C 4.89 g/m*3 1.2 C 0 km/h
63 25-01-2021 06:10:00 1.1 C 4.86 g/m*3 1.1 C 0 km/h
64 25-01-2021 06:15:00 1.1 C 4.86 g/m*3 1.1 C 0 km/h
65 25-01-2021 06:20:00 1.1 C 4.86 g/m*3 1.1 C 0 km/h
66 25-01-2021 06:25:00 1.1 C 4.86 g/m*3 1.1 C 0 km/h
67 25-01-2021 06:30:00 1.1 C 4.86 g/m*3 1.1 C 0 km/h
68 25-01-2021 06:35:00 1 C 4.83 g/m*3 1 C 0 km/h
69 25-01-2021 06:40:00 1 C 4.83 g/m*3 1 C 0 km/h
70 25-01-2021 06:45:00 1 C 4.83 g/m*3 1 C 0 km/h
71 25-01-2021 06:50:00 0.9 C 4.79 g/m*3 0.9 C 0 km/h
72 25-01-2021 06:55:00 0.9 C 4.79 g/m*3 0.9 C 0 km/h
73 25-01-2021 07:00:00 0.9 C 4.79 g/m*3 0.9 C 0 km/h
74 25-01-2021 07:05:00 0.9 C 4.79 g/m*3 0.9 C 0 km/h
75 25-01-2021 07:10:00 0.9 C 4.79 g/m*3 0.9 C 0 km/h
Sensor: Nr:Datum:Temp:Abs-Feuchte:Windchill:Wind:
Aussen-T/F 76 25-01-2021 07:15:00 0.9 C 4.79 g/m*3 0.9 C 0 km/h
77 25-01-2021 07:20:00 0.9 C 4.85 g/m*3 0.9 C 0 km/h
78 25-01-2021 07:25:00 0.9 C 4.85 g/m*3 0.9 C 0 km/h
79 25-01-2021 07:30:00 0.9 C 4.85 g/m*3 0.9 C 0 km/h
80 25-01-2021 07:35:00 0.9 C 4.85 g/m*3 0.9 C 0 km/h
81 25-01-2021 07:40:00 0.9 C 4.85 g/m*3 0.9 C 0 km/h
82 25-01-2021 07:45:00 0.9 C 4.85 g/m*3 0.9 C 0 km/h
83 25-01-2021 07:50:00 0.9 C 4.85 g/m*3 0.9 C 0 km/h
84 25-01-2021 07:55:00 0.9 C 4.85 g/m*3 0.9 C 0 km/h
85 25-01-2021 08:00:00 0.9 C 4.85 g/m*3 0.9 C 0 km/h
86 25-01-2021 08:05:00 0.9 C 4.85 g/m*3 0.9 C 0 km/h
87 25-01-2021 08:10:00 0.9 C 4.85 g/m*3 0.9 C 0 km/h
88 25-01-2021 08:15:00 0.9 C 4.85 g/m*3 0.9 C 0 km/h
89 25-01-2021 08:20:00 0.9 C 4.85 g/m*3 0.9 C 0 km/h
90 25-01-2021 08:25:00 0.9 C 4.85 g/m*3 0.9 C 0 km/h
91 25-01-2021 08:30:00 0.9 C 4.85 g/m*3 0.9 C 0 km/h
92 25-01-2021 08:35:00 1 C 4.88 g/m*3 1 C 0 km/h
93 25-01-2021 08:40:00 1 C 4.88 g/m*3 1 C 0 km/h
94 25-01-2021 08:45:00 1 C 4.88 g/m*3 1 C 0 km/h
95 25-01-2021 08:50:00 1 C 4.88 g/m*3 1 C 0 km/h
96 25-01-2021 08:55:00 1 C 4.88 g/m*3 1 C 0 km/h
97 25-01-2021 09:00:00 1.1 C 4.91 g/m*3 1.1 C 0 km/h
98 25-01-2021 09:05:00 1.1 C 4.91 g/m*3 1.1 C 0 km/h
99 25-01-2021 09:10:00 1.1 C 4.91 g/m*3 1.1 C 0 km/h
100 25-01-2021 09:15:00 1.1 C 4.91 g/m*3 1.1 C 0 km/h
Sensor: Nr:Datum:Temp:Abs-Feuchte:Windchill:Wind:
Aussen-T/F 101 25-01-2021 09:20:00 1.1 C 4.91 g/m*3 1.1 C 0 km/h
102 25-01-2021 09:25:00 1.1 C 4.91 g/m*3 1.1 C 0 km/h
103 25-01-2021 09:30:00 1.1 C 4.91 g/m*3 1.1 C 0 km/h
104 25-01-2021 09:35:00 1.2 C 5 g/m*3 1.2 C 0 km/h
105 25-01-2021 09:40:00 1.2 C 5 g/m*3 1.2 C 0 km/h
106 25-01-2021 09:45:00 1.2 C 5 g/m*3 1.2 C 0 km/h
107 25-01-2021 09:50:00 1.2 C 5 g/m*3 1.2 C 0 km/h
108 25-01-2021 09:55:00 1.3 C 5.03 g/m*3 1.3 C 0 km/h
109 25-01-2021 10:00:00 1.3 C 5.03 g/m*3 1.3 C 0 km/h
110 25-01-2021 10:05:00 1.3 C 5.03 g/m*3 1.3 C 0 km/h
111 25-01-2021 10:10:00 1.4 C 5.07 g/m*3 1.4 C 0 km/h
112 25-01-2021 10:15:00 1.4 C 5.07 g/m*3 1.4 C 0 km/h
113 25-01-2021 10:20:00 1.5 C 5.1 g/m*3 1.5 C 0 km/h
114 25-01-2021 10:25:00 1.6 C 5.14 g/m*3 1.6 C 0 km/h
115 25-01-2021 10:30:00 1.6 C 5.14 g/m*3 1.6 C 0 km/h
116 25-01-2021 10:35:00 1.6 C 5.14 g/m*3 1.6 C 0 km/h
117 25-01-2021 10:40:00 1.6 C 5.14 g/m*3 1.6 C 0 km/h
118 25-01-2021 10:45:00 1.7 C 5.17 g/m*3 1.7 C 0 km/h
119 25-01-2021 10:50:00 1.7 C 5.17 g/m*3 1.7 C 0 km/h
120 25-01-2021 10:55:00 1.7 C 5.17 g/m*3 1.7 C 0 km/h
121 25-01-2021 11:00:00 1.7 C 5.17 g/m*3 1.7 C 0 km/h
122 25-01-2021 11:05:00 1.8 C 5.21 g/m*3 1.8 C 0 km/h
123 25-01-2021 11:10:00 1.8 C 5.21 g/m*3 1.8 C 0 km/h
124 25-01-2021 11:15:00 1.8 C 5.21 g/m*3 1.8 C 0 km/h
125 25-01-2021 11:20:00 1.8 C 5.21 g/m*3 1.8 C 0 km/h
Sensor: Nr:Datum:Temp:Abs-Feuchte:Windchill:Wind:
Aussen-T/F 126 25-01-2021 11:25:00 1.9 C 5.24 g/m*3 1.9 C 0 km/h
127 25-01-2021 11:30:00 1.9 C 5.24 g/m*3 1.9 C 1.6 km/h
128 25-01-2021 11:35:00 1.9 C 5.24 g/m*3 1.9 C 0 km/h
129 25-01-2021 11:40:00 2 C 5.28 g/m*3 2 C 0 km/h
130 25-01-2021 11:45:00 2 C 5.28 g/m*3 2 C 0 km/h
131 25-01-2021 11:50:00 2.1 C 5.31 g/m*3 2.1 C 0 km/h
132 25-01-2021 11:55:00 2.1 C 5.31 g/m*3 2.1 C 0 km/h
133 25-01-2021 12:00:00 2.2 C 5.35 g/m*3 2.2 C 0 km/h
134 25-01-2021 12:05:00 2.2 C 5.35 g/m*3 2.2 C 0 km/h
135 25-01-2021 12:10:00 2.2 C 5.35 g/m*3 2.2 C 0 km/h
136 25-01-2021 12:15:00 2.2 C 5.35 g/m*3 2.2 C 0 km/h
137 25-01-2021 12:20:00 2.2 C 5.35 g/m*3 2.2 C 0 km/h
138 25-01-2021 12:25:00 2.3 C 5.39 g/m*3 2.3 C 0 km/h
139 25-01-2021 12:30:00 2.3 C 5.39 g/m*3 2.3 C 0 km/h
140 25-01-2021 12:35:00 2.3 C 5.39 g/m*3 2.3 C 0 km/h
141 25-01-2021 12:40:00 2.3 C 5.39 g/m*3 2.3 C 0 km/h
142 25-01-2021 12:45:00 2.3 C 5.39 g/m*3 2.3 C 4.8 km/h
143 25-01-2021 12:50:00 2.3 C 5.39 g/m*3 2.3 C 3.2 km/h
144 25-01-2021 12:55:00 2.3 C 5.39 g/m*3 2.3 C 0 km/h
145 25-01-2021 13:00:00 2.3 C 5.39 g/m*3 2.3 C 1.6 km/h
146 25-01-2021 13:05:00 2.2 C 5.35 g/m*3 2.2 C 3.2 km/h
147 25-01-2021 13:10:00 2.2 C 5.35 g/m*3 2.2 C 3.2 km/h
148 25-01-2021 13:15:00 2.2 C 5.35 g/m*3 2.2 C 3.2 km/h
149 25-01-2021 13:20:00 2.2 C 5.35 g/m*3 2.2 C 0 km/h
150 25-01-2021 13:25:00 2.2 C 5.35 g/m*3 2.2 C 4.8 km/h
Sensor: Nr:Datum:Temp:Abs-Feuchte:Windchill:Wind:
Aussen-T/F 151 25-01-2021 13:30:00 2.2 C 5.35 g/m*3 2.2 C 4.8 km/h
152 25-01-2021 13:35:00 2.2 C 5.35 g/m*3 -0.18 C 8.1 km/h
153 25-01-2021 13:40:00 2.2 C 5.29 g/m*3 2.2 C 4.8 km/h
154 25-01-2021 13:45:00 2.2 C 5.29 g/m*3 2.2 C 4.8 km/h
155 25-01-2021 13:50:00 2.2 C 5.29 g/m*3 0.36 C 6.4 km/h
156 25-01-2021 13:55:00 2.2 C 5.29 g/m*3 -0.18 C 8.1 km/h
157 25-01-2021 14:00:00 2.2 C 5.29 g/m*3 -0.18 C 8.1 km/h
158 25-01-2021 14:05:00 2.2 C 5.24 g/m*3 -0.18 C 8.1 km/h
159 25-01-2021 14:10:00 2.2 C 5.29 g/m*3 2.2 C 0 km/h
160 25-01-2021 14:15:00 2.2 C 5.29 g/m*3 -0.18 C 8.1 km/h
161 25-01-2021 14:20:00 2.2 C 5.24 g/m*3 0.36 C 6.4 km/h
162 25-01-2021 14:25:00 2.2 C 5.24 g/m*3 2.2 C 3.2 km/h
163 25-01-2021 14:30:00 2.2 C 5.24 g/m*3 0.36 C 6.4 km/h
164 25-01-2021 14:35:00 2.2 C 5.24 g/m*3 0.36 C 6.4 km/h
165 25-01-2021 14:40:00 2.1 C 5.2 g/m*3 -0.73 C 9.7 km/h
166 25-01-2021 14:45:00 2.1 C 5.2 g/m*3 2.1 C 4.8 km/h
167 25-01-2021 14:50:00 2.1 C 5.2 g/m*3 0.24 C 6.4 km/h
168 25-01-2021 14:55:00 2.1 C 5.2 g/m*3 -0.3 C 8.1 km/h
169 25-01-2021 15:00:00 2.1 C 5.2 g/m*3 -0.3 C 8.1 km/h
170 25-01-2021 15:05:00 2.1 C 5.2 g/m*3 2.1 C 3.2 km/h
171 25-01-2021 15:10:00 2.1 C 5.2 g/m*3 -0.73 C 9.7 km/h
172 25-01-2021 15:15:00 2.1 C 5.2 g/m*3 2.1 C 1.6 km/h
173 25-01-2021 15:20:00 2.2 C 5.24 g/m*3 0.36 C 6.4 km/h
174 25-01-2021 15:25:00 2.1 C 5.2 g/m*3 0.24 C 6.4 km/h
175 25-01-2021 15:30:00 2.2 C 5.24 g/m*3 2.2 C 3.2 km/h
Sensor: Nr:Datum:Temp:Abs-Feuchte:Windchill:Wind:
Aussen-T/F 176 25-01-2021 15:35:00 2.2 C 5.24 g/m*3 2.2 C 3.2 km/h
177 25-01-2021 15:40:00 2.1 C 5.2 g/m*3 2.1 C 3.2 km/h
178 25-01-2021 15:45:00 2.2 C 5.29 g/m*3 2.2 C 1.6 km/h
179 25-01-2021 15:50:00 2.1 C 5.26 g/m*3 0.24 C 6.4 km/h
180 25-01-2021 15:55:00 2.1 C 5.26 g/m*3 -0.3 C 8.1 km/h
181 25-01-2021 16:00:00 2.1 C 5.2 g/m*3 2.1 C 4.8 km/h
182 25-01-2021 16:05:00 2.1 C 5.2 g/m*3 -0.3 C 8.1 km/h
183 25-01-2021 16:10:00 2.1 C 5.2 g/m*3 -0.73 C 9.7 km/h
184 25-01-2021 16:15:00 2.1 C 5.2 g/m*3 2.1 C 3.2 km/h
185 25-01-2021 16:20:00 2.1 C 5.2 g/m*3 2.1 C 3.2 km/h
186 25-01-2021 16:25:00 2.1 C 5.2 g/m*3 2.1 C 4.8 km/h
187 25-01-2021 16:30:00 2.1 C 5.2 g/m*3 0.24 C 6.4 km/h
188 25-01-2021 16:35:00 2.1 C 5.2 g/m*3 2.1 C 1.6 km/h
189 25-01-2021 16:40:00 2.1 C 5.2 g/m*3 0.24 C 6.4 km/h
190 25-01-2021 16:45:00 2.1 C 5.2 g/m*3 0.24 C 6.4 km/h
191 25-01-2021 16:50:00 2.1 C 5.2 g/m*3 2.1 C 1.6 km/h
192 25-01-2021 16:55:00 2.1 C 5.2 g/m*3 0.24 C 6.4 km/h
193 25-01-2021 17:00:00 2.1 C 5.2 g/m*3 2.1 C 4.8 km/h
194 25-01-2021 17:05:00 2.1 C 5.2 g/m*3 2.1 C 3.2 km/h
195 25-01-2021 17:10:00 2.1 C 5.2 g/m*3 2.1 C 1.6 km/h
196 25-01-2021 17:15:00 2.1 C 5.2 g/m*3 2.1 C 0 km/h
197 25-01-2021 17:20:00 2.1 C 5.2 g/m*3 2.1 C 3.2 km/h
198 25-01-2021 17:25:00 2.1 C 5.2 g/m*3 2.1 C 0 km/h
199 25-01-2021 17:30:00 2.1 C 5.2 g/m*3 2.1 C 1.6 km/h
200 25-01-2021 17:35:00 2.1 C 5.2 g/m*3 2.1 C 1.6 km/h
Sensor: Nr:Datum:Temp:Abs-Feuchte:Windchill:Wind:
Aussen-T/F 201 25-01-2021 17:40:00 2.1 C 5.2 g/m*3 2.1 C 3.2 km/h
202 25-01-2021 17:45:00 2.1 C 5.2 g/m*3 2.1 C 3.2 km/h
203 25-01-2021 17:50:00 2.1 C 5.2 g/m*3 2.1 C 3.2 km/h
204 25-01-2021 17:55:00 2 C 5.17 g/m*3 2 C 0 km/h
205 25-01-2021 18:00:00 1.9 C 5.13 g/m*3 1.9 C 1.6 km/h
206 25-01-2021 18:05:00 1.8 C 5.1 g/m*3 1.8 C 4.8 km/h
207 25-01-2021 18:10:00 1.7 C 5.06 g/m*3 1.7 C 3.2 km/h
208 25-01-2021 18:15:00 1.5 C 4.99 g/m*3 1.5 C 3.2 km/h
209 25-01-2021 18:20:00 1.4 C 4.96 g/m*3 1.4 C 1.6 km/h
210 25-01-2021 18:25:00 1.3 C 4.93 g/m*3 1.3 C 0 km/h
211 25-01-2021 18:30:00 1.3 C 4.93 g/m*3 1.3 C 0 km/h
212 25-01-2021 18:35:00 1.3 C 4.93 g/m*3 1.3 C 1.6 km/h
213 25-01-2021 18:40:00 1.3 C 4.98 g/m*3 1.3 C 1.6 km/h
214 25-01-2021 18:45:00 1.3 C 4.98 g/m*3 1.3 C 0 km/h
215 25-01-2021 18:50:00 1.3 C 4.98 g/m*3 1.3 C 0 km/h
216 25-01-2021 18:55:00 1.3 C 4.98 g/m*3 1.3 C 0 km/h
217 25-01-2021 19:00:00 1.3 C 4.98 g/m*3 1.3 C 0 km/h
218 25-01-2021 19:05:00 1.3 C 4.98 g/m*3 1.3 C 0 km/h
219 25-01-2021 19:10:00 1.3 C 4.98 g/m*3 1.3 C 0 km/h
220 25-01-2021 19:15:00 1.3 C 4.98 g/m*3 1.3 C 0 km/h
221 25-01-2021 19:20:00 1.3 C 4.98 g/m*3 1.3 C 0 km/h
222 25-01-2021 19:25:00 1.3 C 4.98 g/m*3 1.3 C 3.2 km/h
223 25-01-2021 19:30:00 1.2 C 4.95 g/m*3 1.2 C 3.2 km/h
224 25-01-2021 19:35:00 1.2 C 4.95 g/m*3 1.2 C 3.2 km/h
225 25-01-2021 19:40:00 1.1 C 4.91 g/m*3 1.1 C 3.2 km/h
Sensor: Nr:Datum:Temp:Abs-Feuchte:Windchill:Wind:
Aussen-T/F 226 25-01-2021 19:45:00 1 C 4.88 g/m*3 1 C 3.2 km/h
227 25-01-2021 19:50:00 0.9 C 4.85 g/m*3 0.9 C 3.2 km/h
228 25-01-2021 19:55:00 0.9 C 4.85 g/m*3 0.9 C 3.2 km/h
229 25-01-2021 20:00:00 0.9 C 4.85 g/m*3 0.9 C 4.8 km/h
230 25-01-2021 20:05:00 0.9 C 4.85 g/m*3 0.9 C 4.8 km/h
231 25-01-2021 20:10:00 0.8 C 4.81 g/m*3 0.8 C 3.2 km/h
232 25-01-2021 20:15:00 0.7 C 4.78 g/m*3 0.7 C 4.8 km/h
233 25-01-2021 20:20:00 0.6 C 4.75 g/m*3 0.6 C 3.2 km/h
234 25-01-2021 20:25:00 0.6 C 4.75 g/m*3 0.6 C 4.8 km/h
235 25-01-2021 20:30:00 0.4 C 4.68 g/m*3 0.4 C 4.8 km/h
236 25-01-2021 20:35:00 0.4 C 4.68 g/m*3 0.4 C 3.2 km/h
237 25-01-2021 20:40:00 0.3 C 4.65 g/m*3 -1.84 C 6.4 km/h
238 25-01-2021 20:45:00 0.3 C 4.65 g/m*3 0.3 C 4.8 km/h
239 25-01-2021 20:50:00 0.3 C 4.65 g/m*3 -1.84 C 6.4 km/h
240 25-01-2021 20:55:00 0.3 C 4.65 g/m*3 -1.84 C 6.4 km/h
241 25-01-2021 21:00:00 0.3 C 4.65 g/m*3 0.3 C 4.8 km/h
242 25-01-2021 21:05:00 0.4 C 4.68 g/m*3 0.4 C 4.8 km/h
243 25-01-2021 21:10:00 0.4 C 4.68 g/m*3 -1.72 C 6.4 km/h
244 25-01-2021 21:15:00 0.4 C 4.68 g/m*3 0.4 C 3.2 km/h
245 25-01-2021 21:20:00 0.4 C 4.68 g/m*3 -2.3 C 8.1 km/h

Legende:
   Min
   Max


Maximal/Minimal-Werte vom 25.01.2021 - 25.01.2021

Sensor Min Max Avg
Temp
(Aussen-T/F)
0.3 °C
25-01-2021  20:40:00
2.3 °C
25-01-2021  12:25:00
1.4 °C
Abs-Feuchte
(Aussen-T/F)
4.65 g/m*3
25-01-2021  20:40:00
5.39 g/m*3
25-01-2021  12:25:00
4.97 g/m*3
Windchill
(Aussen-T/F)
-2.3 C
25-01-2021  21:20:00
2.3 C
25-01-2021  12:25:00
1.01 C

Die Daten stammen von einer Davis Vantage Pro 2 Wetter-Station und werden unter Linux mit der Software wview2wettercgi und aufbereitet. Alle Angaben erfolgen ohne Gewähr für ihre Vollständigkeit oder Richtigkeit.
Kontakt: Rainer Krienke krienke@uni-koblenz.de . Meine Webseiten an der Uni Koblenz oder privat.
Version: $Revision: 0.78 $